DW0774 Weather Reports


time (UTC)temp
C
wind
direction
speed
KPH
gust
KPH
rain 1hr
cm
rain 24hr
cm
rain mn
cm
humidity
%
barometer
mb
20260506111511 -6 42 0.0 3.2 0.00 0.00 0.00 94 1015.2
20260506110019 -6 111 0.0 0.0 0.00 0.00 0.00 94 1015.2
20260506104504 -6 111 0.0 0.0 0.00 0.00 0.00 94 1015.1
20260506103006 -6 111 0.0 0.0 0.00 0.00 0.00 94 1015.1
20260506101504 -6 90 0.0 3.2 0.00 0.00 0.00 94 1015.0
20260506100005 -6 148 0.0 8.0 0.00 0.00 0.00 94 1015.5
20260506094520 -6 135 4.8 11.3 0.00 0.00 0.00 94 1015.2
20260506093004 -6 159 3.2 8.0 0.00 0.00 0.00 94 1015.3
20260506091512 -6 155 4.8 8.0 0.00 0.00 0.00 94 1015.4
20260506090019 -6 152 3.2 6.4 0.00 0.00 0.00 94 1015.3
20260506084520 -6 142 3.2 11.3 0.00 0.00 0.00 94 1015.5
20260506083004 -5 144 3.2 9.7 0.00 0.03 0.00 94 1015.4
20260506081518 -5 138 1.6 4.8 0.00 0.03 0.00 94 1015.4
20260506073012 -5 34 0.0 6.4 0.00 0.10 0.00 94 1015.6
20260506071507 -5 17 3.2 14.5 0.00 0.13 0.00 94 1015.8
20260506061523 -5 83 0.0 0.0 0.00 0.13 0.00 94 1015.3
20260506044527 -5 103 0.0 0.0 0.00 0.13 0.13 94 1015.0
20260506043010 -5 103 0.0 0.0 0.00 0.13 0.13 94 1015.0
20260506041504 -5 103 0.0 3.2 0.00 0.13 0.13 94 1015.0
20260506040011 -5 78 0.0 0.0 0.00 0.13 0.13 94 1014.8
20260506034505 -5 78 0.0 1.6 0.00 0.13 0.13 94 1014.6
20260506033005 -5 37 0.0 0.0 0.00 0.13 0.13 94 1014.6
20260506031504 -5 27 0.0 1.6 0.00 0.13 0.13 95 1014.4
20260506030004 -5 27 0.0 4.8 0.00 0.13 0.13 94 1014.3
20260506024515 -5 22 3.2 4.8 0.00 0.13 0.13 94 1014.2
20260506023016 -5 24 0.0 4.8 0.00 0.13 0.13 94 1013.8
20260506021503 -5 64 0.0 1.6 0.00 0.13 0.13 94 1013.1
20260506020004 -4 66 0.0 4.8 0.00 0.13 0.13 94 1013.1
20260506014520 -4 50 0.0 4.8 0.00 0.15 0.13 94 1013.1
20260506013004 -4 46 1.6 8.0 0.00 0.18 0.13 93 1012.8
20260506011530 -4 74 0.0 4.8 0.00 0.18 0.13 94 1012.5
20260506010010 -4 22 0.0 0.0 0.00 0.25 0.13 94 1012.4
20260506004515 -4 35 3.2 6.4 0.00 0.30 0.13 94 1012.5
20260506003004 -4 38 1.6 8.0 0.00 0.33 0.13 94 1012.7
20260506001522 -4 26 3.2 11.3 0.00 0.43 0.13 94 1012.5
20260506000008 -4 24 3.2 6.4 0.00 0.61 0.13 94 1012.2
20260505234514 -4 21 0.0 4.8 0.00 0.76 0.13 93 1012.1
20260505233004 -4 21 0.0 4.8 0.00 0.76 0.13 93 1011.9
20260505231504 -4 26 3.2 6.4 0.00 0.76 0.13 94 1012.1
20260505230024 -4 53 0.0 4.8 0.00 0.76 0.13 94 1012.4
20260505224508 -5 42 6.4 16.1 0.00 0.76 0.13 94 1012.2
20260505223020 -5 34 11.3 22.5 0.00 0.76 0.13 94 1012.3
20260505221503 -4 19 11.3 17.7 0.00 0.79 0.13 93 1011.9
20260505220003 -3 13 9.7 16.1 0.00 0.79 0.13 93 1011.9
20260505214508 -3 23 8.0 20.9 0.00 0.79 0.13 92 1011.7
20260505213013 -2 22 9.7 16.1 0.00 0.79 0.13 90 1011.9
20260505211505 -1 138 0.0 4.8 0.00 0.79 0.13 93 1011.8
20260505210004 -2 121 1.6 11.3 0.00 0.79 0.13 93 1011.9
20260505204503 -2 112 4.8 11.3 0.00 0.79 0.13 92 1012.2
20260505203003 -2 135 3.2 12.9 0.00 0.79 0.13 93 1012.3
20260505201504 -2 142 9.7 14.5 0.00 0.79 0.13 92 1012.3
20260505200008 -2 135 4.8 12.9 0.00 0.81 0.13 92 1012.7
20260505194508 -2 165 3.2 11.3 0.00 0.86 0.13 92 1013.0
20260505193003 -2 145 1.6 11.3 0.00 0.89 0.13 92 1013.1
20260505191503 -1 126 3.2 11.3 0.00 0.91 0.13 93 1013.3
20260505190005 -1 167 3.2 9.7 0.00 0.94 0.13 93 1013.5
20260505184512 -1 125 3.2 9.7 0.00 0.94 0.13 92 1013.4
20260505183007 -1 114 4.8 11.3 0.00 0.94 0.13 93 1013.3
20260505181504 -1 111 3.2 12.9 0.00 0.94 0.13 94 1013.2
20260505180004 -2 113 6.4 19.3 0.00 0.94 0.13 93 1013.2
20260505174503 -2 143 9.7 16.1 0.00 0.94 0.13 93 1013.7
20260505173008 -2 165 4.8 11.3 0.00 0.94 0.13 93 1013.7
20260505171515 -2 124 8.0 20.9 0.00 0.94 0.13 93 1013.6
20260505170003 -2 123 8.0 17.7 0.00 0.94 0.13 92 1013.9
20260505164508 -1 153 4.8 14.5 0.00 0.94 0.13 94 1014.3
20260505163008 -2 104 4.8 11.3 0.00 0.94 0.13 94 1013.9
20260505161506 -2 93 0.0 4.8 0.00 0.94 0.13 94 1014.1
20260505153009 -2 100 6.4 12.9 0.00 0.94 0.13 94 1014.3
20260505151509 -2 103 4.8 11.3 0.00 0.94 0.13 94 1014.2
20260505124504 -2 51 0.0 11.3 0.00 0.94 0.13 95 1013.9
20260505123006 -2 36 3.2 8.0 0.00 0.94 0.13 95 1013.9
20260505121509 -2 45 0.0 8.0 0.00 0.94 0.13 94 1013.7
20260505120012 -2 52 0.0 6.4 0.00 0.94 0.13 94 1013.7
20260505114505 -2 46 1.6 9.7 0.00 0.94 0.13 95 1013.6
20260505113005 -1 31 1.6 4.8 0.00 0.94 0.13 95 1013.7